FW5380 Weather Reports


Display with metric or nautical units.
time (UTC)temp
F
wind
direction
speed
MPH
gust
MPH
rain 1hr
in
rain 24hr
in
rain mn
in
humidity
%
barometer
mb
20260903034530 54 315 0.0 2.0 0.06 0.06 0.05 84 1012.1
20260903031606 58 293 5.0 13.0 0.04 0.04 0.00 80 1011.9
20260903030030 58 247 2.0 11.0 0.00 0.00 0.00 79 1011.3
20260903024530 59 205 2.0 5.0 0.00 0.00 0.00 79 1011.0
20260903023031 59 180 3.0 7.0 0.00 0.00 0.00 79 1010.8
20260903021530 59 183 2.0 6.0 0.00 0.00 0.00 79 1010.8
20260903020030 59 168 3.0 9.0 0.00 0.00 0.00 80 1010.8
20260903014531 59 167 2.0 7.0 0.00 0.00 0.00 78 1010.8
20260903013031 59 175 2.0 6.0 0.00 0.00 0.00 77 1011.0
20260903011605 60 175 3.0 9.0 0.00 0.00 0.00 75 1011.0
20260903010034 60 181 3.0 9.0 0.00 0.00 0.00 73 1011.1
20260903003031 60 180 4.0 11.0 0.00 0.00 0.00 74 1011.1
20260903001606 60 178 3.0 10.0 0.00 0.00 0.00 73 1011.1
20260903000030 61 188 5.0 10.0 0.00 0.00 0.00 70 1011.2
20260902234609 62 188 7.0 15.0 0.00 0.00 0.00 69 1011.1
20260902233107 62 185 5.0 15.0 0.00 0.00 0.00 69 1011.2
20260902231530 62 188 4.0 14.0 0.00 0.00 0.00 70 1011.3
20260902230038 62 192 5.0 12.0 0.00 0.00 0.00 71 1011.2
20260902223031 62 197 2.0 6.0 0.00 0.00 0.00 72 1011.1
20260902221531 61 200 2.0 7.0 0.00 0.00 0.00 73 1011.1
20260902220104 60 183 2.0 7.0 0.00 0.00 0.00 74 1011.1
20260902213032 60 181 2.0 6.0 0.00 0.00 0.00 74 1011.4
20260902211530 60 182 3.0 7.0 0.00 0.00 0.00 72 1011.5
20260902201605 61 182 5.0 12.0 0.00 0.00 0.00 69 1011.4
20260902200029 61 182 6.0 14.0 0.00 0.00 0.00 66 1011.5
20260902194530 63 193 5.0 14.0 0.00 0.00 0.00 62 1011.3
20260902193031 64 195 7.0 19.0 0.00 0.00 0.00 60 1011.1
20260902191530 65 183 6.0 18.0 0.00 0.00 0.00 59 1010.7
20260902190029 67 142 2.0 13.0 0.00 0.00 0.00 59 1010.4
20260902183032 67 71 1.0 5.0 0.00 0.00 0.00 60 1010.5
20260902181530 66 269 1.0 4.0 0.00 0.00 0.00 62 1010.8
20260902180030 65 60 1.0 5.0 0.00 0.00 0.00 64 1011.1
20260902174530 64 30 1.0 5.0 0.00 0.00 0.00 66 1011.3
20260902173103 64 28 2.0 6.0 0.00 0.00 0.00 69 1011.5
20260902171530 62 2 2.0 6.0 0.00 0.00 0.00 73 1011.7
20260902170030 61 353 2.0 6.0 0.00 0.00 0.00 77 1011.9
20260902164530 61 5 1.0 4.0 0.00 0.00 0.00 81 1012.0
20260902163029 59 15 0.0 4.0 0.00 0.00 0.00 86 1012.1
20260902161532 56 73 0.0 2.0 0.00 0.00 0.00 92 1012.4
20260902160029 55 112 0.0 3.0 0.00 0.00 0.00 93 1012.5
20260902154530 54 91 0.0 3.0 0.00 0.00 0.00 94 1012.7
20260902153029 52 6 0.0 2.0 0.00 0.00 0.00 94 1012.8
20260902151532 51 360 0.0 2.0 0.00 0.00 0.00 94 1012.9
20260902144531 48 86 0.0 3.0 0.00 0.00 0.00 94 1013.1
20260902143032 47 39 0.0 2.0 0.00 0.00 0.00 94 1013.2
20260902141531 46 143 0.0 3.0 0.00 0.00 0.00 93 1013.1
20260902140031 46 180 0.0 2.0 0.00 0.00 0.00 93 1013.1
20260902134607 46 175 0.0 3.0 0.00 0.00 0.00 93 1013.1
20260902133033 45 155 1.0 4.0 0.00 0.00 0.00 93 1013.2
20260902131609 45 172 1.0 4.0 0.00 0.00 0.00 93 1013.3
20260902130032 45 180 0.0 1.0 0.00 0.00 0.00 92 1013.4
20260902124532 45 180 0.0 0.0 0.00 0.00 0.00 92 1013.5
20260902123101 45 180 0.0 3.0 0.00 0.00 0.00 92 1013.5
20260902121532 45 180 1.0 3.0 0.00 0.00 0.00 92 1013.5
20260902120145 46 180 0.0 0.0 0.00 0.00 0.00 92 1013.5
20260902113033 46 181 1.0 3.0 0.00 0.00 0.00 91 1013.5
20260902111530 47 135 0.0 1.0 0.00 0.00 0.00 91 1013.6
20260902110031 47 161 0.0 3.0 0.00 0.00 0.00 90 1013.6
20260902103032 48 180 0.0 1.0 0.00 0.00 0.00 90 1013.4
20260902101530 49 180 1.0 3.0 0.00 0.00 0.00 90 1013.5
20260902100031 49 87 0.0 3.0 0.00 0.00 0.00 89 1013.6
20260902094530 50 45 0.0 1.0 0.00 0.00 0.00 89 1013.7
20260902093028 50 142 1.0 4.0 0.00 0.00 0.00 89 1013.7
20260902091531 50 175 2.0 4.0 0.00 0.00 0.00 89 1013.7
20260902090033 50 171 1.0 4.0 0.00 0.00 0.00 88 1013.6
20260902084606 50 185 1.0 4.0 0.00 0.00 0.00 88 1013.7
20260902083030 50 180 1.0 3.0 0.00 0.00 0.00 87 1013.7
20260902081530 50 126 0.0 3.0 0.00 0.00 0.00 86 1013.6
20260902080106 51 178 1.0 3.0 0.00 0.00 0.00 85 1013.7
20260902073105 52 182 1.0 3.0 0.00 0.00 0.00 83 1014.0
20260902071532 53 198 1.0 5.0 0.00 0.00 0.00 82 1014.0
20260902064530 55 176 1.0 3.0 0.00 0.00 0.00 80 1014.2
20260902063107 54 345 1.0 6.0 0.00 0.00 0.00 78 1013.8
20260902060104 56 42 1.0 4.0 0.00 0.00 0.00 72 1013.7
20260902054602 58 253 0.0 3.0 0.00 0.00 0.00 69 1014.1
20260902053031 59 271 0.0 1.0 0.00 0.00 0.00 67 1014.2
20260902051605 60 332 2.0 8.0 0.00 0.00 0.00 64 1013.8
20260902050029 60 329 4.0 12.0 0.00 0.00 0.00 64 1013.6
20260902043030 61 331 3.0 8.0 0.00 0.00 0.00 63 1013.4
20260902041531 61 323 5.0 10.0 0.00 0.00 0.00 61 1013.1